This demonstration page uses our WeatherBlox Daily Observations layout. Learn more.

Left ArrowRight Arrow

44.89941, -97.11507

Hourly Observations for October 21, 2019

Temp ( °F °C ) Dew Point ( °F °C ) Humidity (%) Winds ( mph kmh ) Pressure ( in mb ) Visibility ( mi km ) Precip ( " mm )
12:53 am 00:53 Cloudy with Rain 48 8.9 43 6.1 83 83 SE 10 17 29.55 1001 10 16 0.02 0.51
1:46 am 01:46 Cloudy with Light Rain 47 8.3 44 6.7 90 90 ESE 7 11 29.53 1000 9 14 0.08 2.03
1:53 am 01:53 Cloudy with Light Rain 47 8.3 44 6.7 90 90 ESE 9 15 29.52 1000 10 16 0.09 2.29
2:01 am 02:01 Cloudy with Light Rain 47 8.3 44 6.7 90 90 ESE 7 11 29.53 1000 9 14 0.00 0.00
2:53 am 02:53 Cloudy 47 8.3 45 7.2 93 93 E 6 9 29.51 999 10 16 0.08 2.03
3:36 am 03:36 Cloudy with Light Rain 47 8.3 45 7.2 93 93 E 3 6 29.50 999 10 16 0.02 0.51
3:53 am 03:53 Cloudy 47 8.3 45 7.2 93 93 ENE 6 9 29.49 999 10 16 0.02 0.51
4:53 am 04:53 Cloudy 46 7.8 45 7.2 96 96 NNE 7 11 29.47 998 10 16 0.01 0.25
5:53 am 05:53 Cloudy 46 7.8 44 6.7 93 93 NNE 8 13 29.47 998 10 16 0.01 0.25
6:38 am 06:38 Cloudy 46 7.8 45 7.2 96 96 N 12 19 29.47 998 10 16 0.00 0.00
6:53 am 06:53 Cloudy 46 7.8 45 7.2 96 96 N 9 15 29.46 998 10 16 0.00 0.00
7:31 am 07:31 Cloudy with Mist and Fog 46 7.8 45 7.2 96 96 N 10 17 29.47 998 6 10 0.00 0.00
7:53 am 07:53 Cloudy 46 7.8 45 7.2 96 96 N 13 20 29.43 997 7 11 0.00 0.00
8:53 am 08:53 Cloudy 45 7.2 43 6.1 93 93 NNE 20 31 29.41 996 10 16 0.00 0.00
9:53 am 09:53 Cloudy 45 7.2 43 6.1 93 93 NNE 20 31 29.41 996 10 16 0.00 0.00
10:53 am 10:53 Cloudy 44 6.7 41 5 89 89 NNE 23 37 29.41 996 10 16 0.00 0.00
11:15 am 11:15 Cloudy 43 6.1 41 5 93 93 NNE 26 43 29.41 996 7 11 0.00 0.00
11:53 am 11:53 Cloudy with Light Rain 42 5.6 39 3.9 89 89 NNE 26 43 29.42 996 10 16 0.02 0.51
12:53 pm 12:53 Cloudy with Light Rain 43 6.1 40 4.4 89 89 N 25 41 29.41 996 6 10 0.03 0.76
1:53 pm 13:53 Cloudy with Light Rain 44 6.7 41 5 89 89 N 28 44 29.40 996 10 16 0.04 1.02
2:53 pm 14:53 Cloudy with Light Rain 44 6.7 41 5 89 89 N 33 54 29.40 996 8 13 0.03 0.76
3:50 pm 15:50 Cloudy with Rain 43 6 41 5 93 93 N 29 46 29.47 998 3 4 0.10 2.54
3:53 pm 15:53 Cloudy with Rain 44 6.7 41 5 89 89 N 22 35 29.42 996 3 5 0.12 3.05
4:02 pm 16:02 Cloudy with Light Rain 44 6.7 42 5.6 93 93 N 29 46 29.44 997 5 8 0.02 0.51
4:38 pm 16:38 Cloudy with Light Rain 45 7.2 41 5 86 86 NNW 33 54 29.44 997 10 16 0.07 1.78
4:53 pm 16:53 Cloudy with Light Rain 44 6.7 42 5.6 93 93 NNW 29 46 29.44 997 8 13 0.08 2.03
5:53 pm 17:53 Cloudy with Light Rain 44 6.7 41 5 89 89 NNW 36 57 29.47 998 9 14 0.06 1.52
6:53 pm 18:53 Cloudy with Light Rain 43 6.1 40 4.4 89 89 NNW 38 61 29.51 999 8 13 0.06 1.52
7:42 pm 19:42 Cloudy with Light Rain 42 5.6 40 4.4 92 92 NW 32 52 29.56 1001 9 14 0.03 0.76
7:53 pm 19:53 Cloudy with Light Rain 42 5.6 40 4.4 92 92 NNW 36 57 29.55 1001 7 11 0.03 0.76
8:53 pm 20:53 Cloudy 41 5 39 3.9 93 93 NW 35 56 29.57 1001 10 16 0.02 0.51
9:05 pm 21:05 Cloudy 41 5 38 3.3 89 89 NNW 33 54 29.59 1002 10 16 0.00 0.00
9:26 pm 21:26 Cloudy 41 5 38 3.3 89 89 NW 31 50 29.59 1002 10 16 0.00 0.00
9:53 pm 21:53 Cloudy 40 4.4 37 2.8 89 89 NNW 30 48 29.60 1002 10 16 0.00 0.00
10:53 pm 22:53 Cloudy 40 4.4 37 2.8 89 89 NNW 32 52 29.62 1003 10 16 0.00 0.00
11:53 pm 23:53 Cloudy 39 3.9 36 2.2 89 89 NW 30 48 29.64 1004 10 16 0.00 0.00

Powered by AerisWeather